Change the Weather History Date:

Saturday, November 26, 2011

  Actual Average Record
Temperature  
Mean Temperature 21 °F -  
Max Temperature 25 °F 32 °F 52 °F (2002)
Min Temperature 16 °F 25 °F -8 °F (1985)
Degree Days  
Heating Degree Days 44    
Moisture  
Dew Point 16 °F    
Average Humidity 83    
Maximum Humidity 93    
Minimum Humidity 71    
Precipitation  
Precipitation 0.01 in - - ()
Sea Level Pressure  
Sea Level Pressure 29.50 in    
Wind  
Wind Speed 15 mph (WNW)    
Max Wind Speed 20 mph    
Max Gust Speed 25 mph    
Visibility 7 miles    
Events Snow    
Averages and records for this station are not official NWS values.
T = Trace of Precipitation, MM = Missing Value Source: NWS Daily Summary

Daily Weather History Graph

Daily Weather History Graph

Search for Another Location

Airport or City:

Trip Planner

Search our weather history database for the weather conditions in past years. The results will help you decide how hot, cold, wet, or windy it might be!

Date:

Astronomy

Nov. 26, 2011 Rise Set
Actual Time 8:20 AM AKST 3:17 PM AKST
Civil Twilight 7:29 AM AKST 4:08 PM AKST
Nautical Twilight 6:37 AM AKST 5:00 PM AKST
Astronomical Twilight 5:48 AM AKST 5:49 PM AKST
Moon 10:16 AM AKST (11/26) 4:40 PM AKST (11/26)
Length of Visible Light 8h 38m
Length of Day
6h 56m
Waxing Crescent, 4% of the Moon is Illuminated
Nov 26
Waxing Crescent
Dec 2
First Quarter
Dec 10
Full
Dec 17
Last Quarter
Dec 24
New

Hourly Weather History & Observations

Time (AKST) Temp. Windchill Dew Point Humidity Pressure Visibility Wind Dir Wind Speed Gust Speed Precip Events Conditions
12:25 AM 19.4 °F 6.0 °F 17.6 °F 93% 29.57 in 1.5 mi WNW 13.8 mph - 0.01 in Snow Light Snow
12:47 AM 19.4 °F 6.0 °F 17.6 °F 93% 29.56 in 2.0 mi WNW 13.8 mph - 0.01 in Snow Light Snow
12:54 AM 19.9 °F 7.3 °F 17.1 °F 89% 29.56 in 2.5 mi WNW 12.7 mph - 0.01 in Snow Light Snow
1:08 AM 17.6 °F 3.2 °F 15.8 °F 93% 29.55 in 3.0 mi WNW 15.0 mph - 0.00 in Snow Light Snow
1:19 AM 17.6 °F 3.2 °F 15.8 °F 93% 29.54 in 3.0 mi WNW 15.0 mph - 0.00 in Snow Light Snow
1:42 AM 17.6 °F 3.2 °F 15.8 °F 93% 29.53 in 3.0 mi WNW 15.0 mph - 0.00 in Snow Light Snow
1:54 AM 19.0 °F 5.0 °F 16.0 °F 88% 29.54 in 4.0 mi WNW 15.0 mph - 0.00 in Snow Light Snow
2:54 AM 18.0 °F 3.6 °F 15.1 °F 88% 29.51 in 4.0 mi WNW 15.0 mph - 0.00 in Snow Light Snow
3:54 AM 18.0 °F 2.2 °F 16.0 °F 92% 29.48 in 2.5 mi WNW 18.4 mph - 0.00 in Snow Light Snow
4:32 AM 19.4 °F 6.0 °F 17.6 °F 93% 29.46 in 3.0 mi WNW 13.8 mph - 0.00 in Snow Light Snow
4:54 AM 21.0 °F 6.6 °F 18.0 °F 88% 29.46 in 4.0 mi WNW 17.3 mph - 0.00 in Snow Light Snow
5:06 AM 19.4 °F 4.1 °F 17.6 °F 93% 29.44 in 5.0 mi WNW 18.4 mph - 0.00 in Snow Light Snow
5:54 AM 19.9 °F 5.2 °F 17.1 °F 89% 29.45 in 10.0 mi WNW 17.3 mph - 0.00 in   Overcast
6:54 AM 24.1 °F 12.5 °F 19.9 °F 84% 29.45 in 10.0 mi WNW 12.7 mph - N/A   Overcast
7:54 AM 23.0 °F 9.2 °F 19.0 °F 85% 29.45 in 10.0 mi NW 17.3 mph 24.2 mph N/A   Partly Cloudy
8:54 AM 21.0 °F 8.6 °F 17.1 °F 85% 29.46 in 10.0 mi WNW 12.7 mph - 0.00 in   Partly Cloudy
9:54 AM 25.0 °F 13.6 °F 18.0 °F 75% 29.47 in 10.0 mi NW 12.7 mph 21.9 mph N/A   Mostly Cloudy
10:54 AM 23.0 °F 10.1 °F 18.0 °F 81% 29.49 in 10.0 mi NW 15.0 mph - N/A   Overcast
11:54 AM 24.1 °F 11.5 °F 19.0 °F 81% 29.50 in 10.0 mi NW 15.0 mph - N/A   Mostly Cloudy
12:54 PM 21.9 °F 8.2 °F 18.0 °F 85% 29.49 in 10.0 mi WNW 16.1 mph - N/A   Overcast
1:54 PM 21.9 °F 10.4 °F 17.1 °F 82% 29.49 in 10.0 mi WNW 11.5 mph - N/A   Clear
2:54 PM 24.1 °F 12.0 °F 17.1 °F 75% 29.52 in 10.0 mi NNW 13.8 mph 21.9 mph N/A   Clear
3:54 PM 24.1 °F 12.0 °F 16.0 °F 71% 29.52 in 10.0 mi NW 13.8 mph - N/A   Overcast
4:54 PM 21.0 °F 9.9 °F 15.1 °F 78% 29.52 in 10.0 mi WNW 10.4 mph - N/A   Overcast
5:54 PM 19.0 °F 4.0 °F 12.9 °F 77% 29.52 in 10.0 mi WNW 17.3 mph - N/A   Overcast
6:54 PM 21.0 °F 7.6 °F 12.9 °F 71% 29.51 in 10.0 mi NW 15.0 mph 23.0 mph N/A   Overcast
7:54 PM 19.0 °F 4.0 °F 12.0 °F 74% 29.50 in 10.0 mi WNW 17.3 mph 23.0 mph N/A   Overcast
8:54 PM 18.0 °F 3.1 °F 12.0 °F 78% 29.50 in 10.0 mi WNW 16.1 mph - N/A   Overcast
9:54 PM 19.0 °F 3.6 °F 10.9 °F 71% 29.52 in 10.0 mi WNW 18.4 mph 25.3 mph N/A   Overcast
10:54 PM 17.1 °F 1.5 °F 10.0 °F 74% 29.53 in 10.0 mi WNW 17.3 mph - N/A   Clear
11:54 PM 16.0 °F -0.9 °F 9.0 °F 74% 29.54 in 10.0 mi WNW 19.6 mph - N/A   Clear